Tracking 19817 objects as of 19-Aug-2019
HD Live streaming from Space Station
objects crossing your sky now

TOS R/B

Track TOS R/B now!


NORAD ID: 22797
Int'l Code: 1993-058D
Perigee: 351.2 km
Apogee: 38,314.4 km
Inclination: 14.9 °
Period: 683.5 minutes
Semi major axis: 25703 km
RCS: 9.198 m2 (large)
Launch date: September 12, 1993
Source: United States (US)
Launch site: AIR FORCE EASTERN TEST RANGE (AFETR)

Note: This is a ROCKET BODY
aabbcc
Your satellite tracking list
Your tracking list is empty




NASA's NSSDC Master Catalog

Two Line Element Set (TLE):
1 22797U 93058D   19230.65505169 -.00000102 +00000-0 +30429-4 0  9990
2 22797 014.9200 252.9919 7384751 178.8642 185.0320 02.10672278195541
Source of the keplerian elements: AFSPC